Regional Weather Roundup
Issued by NWS

Home | Current Version | Previous Version | Text Only | Print | Product List | Glossary On
Versions: 1 2 3 4 5 6 7 8 9 10 11 12 13 14 15 16 17 18 19 20 21 22 23 24 25 26 27 28 29 30 31 32 33 34 35 36 37 38 39 40 41 42 43 44 45 46 47 48 49 50
000
ASUS43 KBIS 251310
RWRND

NORTH DAKOTA REGIONAL WEATHER ROUNDUP
NATIONAL WEATHER SERVICE BISMARCK ND
800 AM CDT MON JUL 25 2016

NOTE: "FAIR" INDICATES FEW OR NO CLOUDS BELOW 12,000 FEET WITH NO
SIGNIFICANT WEATHER AND/OR OBSTRUCTIONS TO VISIBILITY.


NDZ001>003-009>011-017-251400-
NORTHWEST NORTH DAKOTA

CITY           SKY/WX    TMP DP  RH WIND       PRES   REMARKS
WILLISTON      SUNNY     66  57  72 CALM      29.97R
MINOT          SUNNY     67  59  75 SE7       29.98S
MINOT AFB      SUNNY     63  59  87 S7        29.97F
$$

NDZ018>021-031>035-040>046-251400-
SOUTHWEST NORTH DAKOTA

CITY           SKY/WX    TMP DP  RH WIND       PRES   REMARKS
BISMARCK       SUNNY     66  62  87 E5        30.00F
DICKINSON      SUNNY     63  53  70 S8        29.98F
GARRISON         N/A     65  62  90 E5        29.98F
HETTINGER ARPT SUNNY     66  52  60 S7        30.03S
$$

NDZ004>008-012>016-024-026-027-054-251400-
NORTHEAST NORTH DAKOTA

CITY           SKY/WX    TMP DP  RH WIND       PRES   REMARKS
GRAND FORKS    MOSUNNY   67  61  81 NW3       30.00F
GRND FRKS AFB  SUNNY     69  61  76 W3        30.01S
DEVILS LAKE    SUNNY     67  64  90 CALM      30.03S
$$

NDZ022-023-025-028>030-036>039-047>053-251400-
SOUTHEAST NORTH DAKOTA

CITY           SKY/WX    TMP DP  RH WIND       PRES   REMARKS
FARGO          SUNNY     67  59  75 SW6       30.04R
JAMESTOWN      SUNNY     65  62  90 S3        30.04S
$$





USA.gov is the U.S. government's official web portal to all federal, state and local government web resources and services.